Theta_e
289 289 289 289 288 288 288 288 288 288 288 287 287 287 287 287 287 286 286 285 285 284 284 283 283 283 283 283 284 284 284 285 285 284 284 283 282 281 281 279 277 276 274 274 274 274 274 274 274 274 274 274 275 276 277 278 279 281 282 282 283 285 287 289 290 293 295 294 294 294 295 295 296 296 296 301 308 309 311 318 321 320 321 321 321
289 289 288 288 288 288 288 288 288 288 288 288 288 287 287 287 286 286 285 285 285 284 283 283 283 283 283 283 284 284 284 285 285 284 282 282 281 280 280 278 277 276 274 273 273 273 273 274 274 274 274 274 274 275 276 277 278 280 282 283 284 285 288 289 290 293 295 295 294 294 295 296 296 296 296 300 307 307 308 317 322 320 321 322 322
289 288 288 288 288 288 288 288 288 288 288 288 288 287 287 286 286 285 285 285 284 283 283 283 283 283 283 283 283 284 284 284 284 283 281 280 280 279 278 277 276 275 273 272 272 272 272 273 273 274 274 274 274 275 276 277 278 279 281 282 284 286 288 290 291 293 295 295 294 295 296 296 296 297 297 299 304 305 306 314 321 321 321 322 322
289 288 288 288 288 288 288 288 288 288 288 288 287 287 286 286 285 285 284 284 283 283 282 282 283 283 283 283 283 284 284 284 283 282 280 279 278 278 277 275 275 274 273 272 272 271 271 272 272 274 275 275 275 276 277 279 280 280 281 282 283 286 288 290 291 293 294 295 295 295 295 296 296 296 297 298 302 304 305 310 319 322 322 323 323
288 288 288 288 288 288 288 288 288 288 288 288 287 287 286 285 285 284 284 283 282 282 282 282 282 283 283 283 283 283 283 283 282 280 279 278 277 276 276 275 274 273 272 272 271 271 271 271 272 273 274 275 275 276 278 279 280 281 282 283 284 286 288 290 291 293 294 295 294 294 295 296 296 296 297 298 301 304 305 308 317 323 323 324 325
288 288 288 288 288 288 287 288 288 288 288 288 287 286 285 284 284 283 283 282 282 282 282 282 282 282 283 283 283 283 283 282 280 279 279 277 276 275 275 275 274 272 272 272 271 271 271 271 272 272 273 274 275 275 277 279 280 281 281 282 284 286 288 290 292 293 294 294 294 294 295 295 296 296 297 298 299 302 303 306 315 322 323 324 325
288 288 288 288 287 288 287 288 288 288 288 287 286 285 284 283 283 282 282 282 282 282 282 282 282 282 283 283 283 282 282 281 279 279 278 277 275 274 274 274 273 272 272 272 272 272 272 272 272 272 272 273 273 274 276 278 279 280 281 282 284 286 287 290 292 293 294 294 294 294 294 295 295 295 296 298 299 300 300 304 313 320 322 323 324
288 288 287 287 288 287 287 288 288 288 287 286 285 284 283 283 282 282 282 281 282 282 282 282 282 282 282 282 282 282 282 281 279 277 277 275 273 272 272 272 272 272 273 273 273 273 273 273 273 273 273 273 273 274 275 276 277 278 280 282 283 285 287 289 291 293 293 293 293 294 294 295 295 296 296 298 299 299 300 303 311 318 320 321 323
288 287 287 287 287 287 288 288 288 287 286 285 284 283 282 282 281 281 281 281 281 281 281 282 282 282 282 282 282 281 280 279 277 275 274 273 271 271 271 272 273 273 273 274 274 274 274 274 274 274 274 274 274 274 275 275 276 277 278 280 281 284 286 288 290 292 292 292 293 293 294 295 295 296 297 298 299 299 300 302 310 318 318 319 320
287 287 287 287 287 287 288 288 287 287 285 284 283 282 282 281 281 281 281 281 281 281 281 282 282 282 282 281 281 280 279 278 276 274 273 272 271 272 272 273 273 274 274 274 275 275 275 275 275 275 276 275 275 275 275 276 276 277 277 279 280 282 285 287 289 291 291 291 292 293 294 294 295 296 298 299 299 300 300 301 309 317 318 317 319
287 287 287 287 287 288 288 288 287 286 284 283 282 282 281 281 281 281 280 281 281 281 281 281 281 281 281 281 280 280 279 278 275 274 273 272 272 273 273 274 274 275 275 275 275 276 276 276 276 276 276 277 276 276 276 276 277 278 278 279 280 281 284 286 288 290 291 291 291 292 293 293 295 296 297 299 300 300 300 300 307 316 317 316 317
287 287 287 287 288 288 288 287 286 285 284 283 282 281 281 281 280 280 280 281 281 281 281 281 281 280 280 280 280 279 279 278 275 274 274 272 272 273 274 274 275 275 276 276 276 276 277 277 278 277 277 278 278 277 276 276 277 277 278 279 280 281 283 285 286 288 290 290 290 291 292 293 294 296 297 298 300 301 301 300 305 315 317 315 317
287 287 287 288 288 288 288 287 285 284 283 282 282 281 281 280 280 280 280 280 280 281 281 280 280 280 280 280 280 280 280 278 276 274 273 272 273 274 275 275 276 276 276 277 277 277 278 278 278 278 278 278 278 278 277 277 276 277 278 279 280 281 283 285 287 287 289 290 290 291 292 292 294 295 297 298 300 301 302 300 303 313 317 315 316
287 287 287 288 288 288 287 286 284 283 283 282 282 281 280 280 279 280 280 280 280 280 280 280 280 279 279 279 279 279 279 278 275 273 272 272 274 275 275 275 276 276 277 277 277 278 278 278 278 278 279 279 279 278 278 277 277 277 277 279 281 282 283 285 287 288 289 290 290 290 292 293 294 295 296 298 299 301 302 301 303 311 317 316 316
287 287 288 288 288 287 286 285 284 283 283 282 281 280 280 279 279 279 280 280 280 280 280 279 279 279 279 279 279 279 279 277 275 273 272 273 274 275 275 275 276 276 276 276 277 277 278 278 278 278 279 279 279 279 278 278 277 277 277 279 281 282 283 285 287 288 289 290 290 290 292 293 294 295 296 297 299 300 302 302 303 310 316 316 315
287 287 288 288 287 286 285 284 284 283 283 281 280 280 279 279 279 279 279 279 279 279 279 279 279 279 279 279 278 278 278 277 274 273 272 273 274 275 275 275 275 275 275 276 276 277 277 278 278 278 279 280 280 279 279 278 278 277 278 279 281 283 284 285 287 288 289 290 290 290 292 293 294 294 295 296 298 300 301 301 304 310 314 315 314
287 288 288 288 287 286 284 284 284 283 282 281 280 279 279 279 279 279 279 279 279 279 278 278 278 279 279 278 277 277 277 276 274 272 272 273 274 274 274 274 274 274 275 276 276 277 277 278 278 279 279 280 280 280 279 279 278 278 278 279 281 283 284 285 286 288 289 289 290 290 291 292 293 294 295 296 297 299 299 300 304 310 313 313 314
288 288 288 287 286 285 284 284 284 282 281 280 279 279 278 278 278 278 278 278 278 278 278 278 278 278 278 277 275 274 275 274 273 272 272 273 274 274 274 274 274 274 275 275 276 276 277 277 278 279 279 280 280 280 280 279 279 279 279 279 281 282 283 284 285 287 288 288 289 290 291 292 293 294 295 295 296 298 298 298 303 310 312 313 313
288 288 287 286 285 284 284 284 283 282 280 279 279 278 278 278 278 277 277 277 278 277 277 278 278 278 277 276 274 273 273 273 272 272 272 273 273 273 273 274 274 274 275 275 276 276 277 277 278 279 279 280 280 280 280 280 279 279 279 280 281 282 283 284 285 286 287 287 288 289 290 291 292 293 294 295 295 298 299 299 302 309 312 313 314
288 287 286 285 284 284 284 283 282 281 279 279 278 278 278 277 277 277 277 277 277 277 277 277 277 277 277 276 274 273 273 273 272 272 272 273 273 273 274 274 274 275 275 276 276 277 277 278 278 279 280 280 281 281 281 281 280 280 279 280 282 283 283 284 284 285 286 287 288 289 290 291 292 293 293 295 295 298 301 300 303 309 313 313 314
287 287 285 284 283 283 283 282 281 280 279 278 278 277 277 277 276 276 276 276 276 276 276 277 277 277 277 276 274 273 272 272 272 272 272 272 273 274 274 274 275 275 275 276 276 276 277 278 278 279 279 280 281 282 282 282 282 281 280 280 282 283 284 284 284 285 286 287 288 289 290 291 292 293 293 294 296 299 301 301 304 310 313 313 314
287 286 284 283 283 283 283 281 280 279 278 278 277 277 277 276 276 275 275 276 276 276 276 276 276 277 276 274 273 273 272 272 271 271 271 272 273 274 274 274 275 275 275 275 276 276 277 277 278 279 279 280 281 282 283 283 282 282 282 281 282 283 284 284 284 285 286 287 288 289 290 290 292 293 294 295 297 300 302 302 305 310 312 314 315
286 285 283 283 283 282 282 280 279 278 277 277 277 277 276 276 275 275 275 275 276 276 276 276 276 276 275 274 273 273 273 272 272 271 271 272 272 273 274 274 274 275 275 275 275 276 277 277 278 279 280 280 282 283 283 283 283 283 283 283 283 284 285 285 285 285 286 287 288 289 290 291 292 293 294 295 298 301 302 303 305 309 311 313 315
285 283 282 282 282 282 281 279 278 278 277 277 277 276 276 275 275 274 274 275 275 276 276 276 275 275 274 273 273 273 273 273 273 272 271 271 272 273 273 273 274 274 274 274 275 276 277 278 279 280 281 281 282 283 284 284 283 283 283 284 284 285 285 286 286 286 287 288 288 289 290 292 293 294 294 296 299 302 303 304 305 308 311 312 313
284 283 282 282 282 281 279 278 278 277 277 276 276 276 275 275 274 274 274 274 274 275 275 275 273 272 272 272 272 273 274 274 273 272 271 271 272 272 272 272 273 273 273 274 274 276 277 279 281 282 283 282 283 284 284 284 284 284 284 284 285 285 285 286 286 287 288 289 289 290 292 293 294 294 295 297 300 302 304 304 305 308 310 311 312
283 282 282 282 281 280 279 278 277 276 276 276 276 275 275 274 274 274 274 274 274 274 274 273 272 271 271 271 270 272 273 273 272 272 271 271 271 271 271 272 272 272 273 273 275 277 280 282 284 285 285 285 285 285 285 285 285 284 284 284 284 285 286 286 286 287 288 289 289 291 293 293 293 294 295 298 301 303 304 305 307 308 309 310 311
282 281 281 281 281 279 278 277 276 276 276 275 275 275 275 274 274 274 273 273 273 273 273 272 271 270 270 270 270 270 271 272 271 271 271 271 271 271 271 271 271 272 272 273 275 278 281 285 287 286 286 287 287 286 286 286 285 285 284 285 285 285 286 287 287 287 288 289 291 292 293 293 294 295 297 300 301 303 304 307 308 309 309 309 310
282 281 281 281 280 279 278 277 276 276 275 275 274 274 274 274 274 273 273 273 273 272 272 271 271 269 269 269 270 270 270 270 271 271 271 271 271 271 270 271 271 272 272 273 275 279 282 284 286 286 286 287 287 287 287 286 285 285 285 285 286 286 287 288 288 288 289 290 291 292 293 293 295 296 299 301 302 303 305 308 309 309 309 309 310
281 281 280 280 280 278 277 276 276 275 275 274 274 273 274 274 273 273 272 272 272 272 272 272 271 270 269 269 270 270 270 270 270 271 271 271 271 270 270 271 271 271 271 273 276 279 281 282 283 284 285 286 286 287 287 286 286 286 286 286 286 287 288 288 289 289 290 290 291 292 293 294 296 298 299 302 303 304 305 308 309 309 309 309 309
281 280 280 280 279 278 277 276 275 275 274 274 273 273 273 272 272 272 272 272 271 271 272 272 272 272 271 270 270 269 269 270 270 270 270 270 270 270 271 272 271 270 271 274 276 278 279 280 280 281 282 284 284 285 285 286 286 287 287 287 287 288 289 289 289 290 290 290 291 292 294 295 296 298 300 303 304 305 306 307 308 309 308 308 308
280 280 280 279 279 277 276 275 274 274 274 273 273 273 272 272 272 271 272 271 271 272 272 272 272 272 272 271 271 270 270 270 270 270 270 269 270 270 271 272 272 271 271 272 275 276 276 276 277 278 278 280 282 283 283 284 285 286 287 288 288 289 289 289 289 290 290 291 292 293 294 296 297 298 302 304 304 305 306 307 307 309 309 308 308
280 279 279 279 278 277 276 274 274 273 273 272 272 272 272 272 272 272 272 271 271 271 271 271 272 272 272 272 271 270 270 270 270 269 269 269 270 271 272 272 272 271 272 273 275 274 273 273 274 275 275 276 278 280 281 283 284 285 286 287 289 289 290 290 290 290 291 292 293 294 295 296 297 299 302 304 304 305 306 306 307 308 309 308 308
279 279 279 279 278 276 275 274 273 273 272 272 271 271 271 271 271 271 271 271 271 271 271 271 272 272 272 272 272 271 271 271 271 270 270 270 271 272 273 273 272 272 273 273 273 272 271 271 272 273 273 274 275 277 279 281 283 285 286 287 288 289 290 291 291 292 292 293 294 295 296 297 298 299 302 304 304 304 305 305 306 307 308 307 307
278 278 278 278 277 276 275 274 273 273 272 271 271 271 271 270 270 270 270 271 271 271 272 271 271 272 272 272 272 271 271 271 271 271 271 271 271 272 274 275 275 274 273 272 270 269 270 270 270 271 272 272 274 275 277 279 281 283 285 287 288 288 289 291 291 292 294 294 295 296 297 297 298 299 301 303 304 304 304 305 306 307 307 306 306
277 278 278 278 277 276 275 274 273 272 272 271 271 270 270 270 270 269 270 270 270 271 271 271 271 271 271 272 272 271 271 271 271 271 271 271 272 273 275 275 274 273 272 271 269 268 269 269 269 270 271 272 273 274 275 277 279 281 283 285 288 289 289 290 291 292 294 295 296 297 297 297 298 300 301 302 303 303 304 304 305 306 306 306 306
277 277 277 277 277 276 274 273 273 272 271 271 270 270 270 270 270 269 269 269 269 270 270 271 271 271 271 271 272 271 271 271 271 271 271 271 272 273 273 272 271 270 270 269 268 268 268 268 269 269 270 271 272 273 274 275 277 279 281 283 286 288 290 291 291 292 293 294 296 297 297 298 299 300 301 301 302 303 304 304 305 306 306 306 305
277 277 277 277 276 275 274 273 273 272 271 271 270 270 270 270 270 269 269 269 269 270 270 270 271 271 271 271 272 271 270 271 271 271 271 271 271 272 272 271 270 269 269 268 268 268 268 268 269 269 269 270 271 272 273 275 276 278 280 282 285 287 289 290 292 293 293 294 295 297 297 298 299 300 300 301 302 303 304 305 305 306 306 306 305
276 276 277 277 276 275 273 273 272 271 271 270 270 270 270 269 269 269 269 269 269 269 269 270 270 270 270 271 271 270 270 271 272 271 271 270 270 271 272 272 271 270 269 268 268 268 268 268 268 269 269 270 270 271 272 274 275 277 279 282 284 286 288 290 291 293 293 294 295 296 297 298 299 299 300 301 301 302 303 305 305 305 305 305 304
276 276 276 276 275 274 273 272 272 271 270 270 270 270 269 269 269 269 269 269 269 269 269 269 269 269 269 270 270 269 269 270 271 270 270 270 270 270 271 271 271 271 269 268 268 268 268 268 268 269 269 269 270 270 271 272 274 276 278 280 283 285 287 289 291 292 293 293 294 295 296 298 299 299 300 301 301 302 302 303 304 303 303 304 304
276 276 276 276 274 273 272 272 271 270 270 270 269 269 269 269 269 269 269 269 269 269 269 269 269 269 269 269 269 268 269 269 269 269 269 269 269 270 270 270 271 271 270 269 269 268 268 268 268 268 269 269 270 270 270 271 273 275 276 278 280 282 284 286 288 291 292 293 293 294 296 297 298 299 300 300 301 301 302 302 302 302 303 303 304
276 276 276 275 274 273 272 271 270 270 270 269 269 269 269 269 269 269 269 269 269 269 269 268 268 268 269 269 268 268 268 269 269 268 269 268 269 269 269 269 270 270 269 269 269 268 268 268 268 268 269 269 269 270 270 270 271 273 275 277 278 280 282 284 286 288 291 293 293 294 295 296 298 299 299 300 301 301 301 301 301 302 302 303 303
276 276 275 274 273 272 271 271 270 270 269 269 269 269 269 269 269 269 269 269 269 269 269 268 268 269 269 268 268 268 268 269 269 268 268 268 268 269 269 269 270 270 269 268 268 268 268 268 268 268 269 269 269 270 270 270 270 271 273 274 276 279 281 283 285 287 289 292 293 294 295 295 297 298 299 300 300 300 301 301 301 301 302 302 302
275 275 275 274 272 272 271 270 270 269 269 269 269 269 268 269 269 268 268 268 269 269 269 269 268 269 269 269 268 268 269 269 269 268 268 268 268 268 269 269 269 270 269 269 269 269 268 268 268 268 269 269 269 270 270 270 270 270 271 272 274 277 280 282 284 286 288 290 292 294 295 295 296 297 299 300 300 300 300 301 301 301 302 302 302
275 275 274 273 272 271 271 270 269 269 269 269 269 268 268 268 268 268 268 268 268 269 269 268 268 268 269 269 269 269 269 269 268 268 268 268 268 268 268 269 269 269 270 270 270 269 269 269 269 269 269 269 270 270 270 270 270 270 270 271 273 276 279 281 283 285 287 289 291 293 294 295 295 296 298 299 300 300 300 300 301 301 301 301 301
275 274 273 272 271 271 270 269 269 269 269 268 268 268 268 268 268 268 268 268 268 268 268 268 268 268 268 268 269 268 268 268 268 268 268 268 268 268 268 268 269 269 269 270 270 270 269 269 269 269 269 269 270 271 271 271 271 271 270 270 271 273 276 278 281 283 285 287 289 292 293 295 295 296 297 298 299 300 300 300 301 301 300 301 301
274 273 272 272 271 270 269 269 269 268 268 268 268 268 268 268 268 269 268 268 268 268 268 268 268 268 268 268 268 268 268 268 268 268 268 268 268 268 268 268 268 269 269 269 270 269 269 269 269 269 269 269 269 270 271 271 272 272 271 271 271 272 274 277 280 282 284 286 288 291 292 294 295 296 296 297 298 299 300 300 300 300 300 301 301
273 273 272 271 271 270 269 269 269 268 268 268 268 268 268 268 268 268 268 268 268 268 268 268 268 268 268 268 268 268 268 268 268 268 268 268 268 268 268 268 268 268 269 269 269 269 269 269 269 269 268 268 269 270 271 271 272 272 273 273 273 273 275 277 280 282 283 285 287 289 291 293 294 295 296 297 297 298 299 299 300 300 300 301 301
272 272 272 271 270 269 269 268 268 268 268 268 268 268 268 268 268 268 268 268 268 268 268 268 268 268 268 268 268 268 268 268 268 268 268 268 268 268 268 268 268 268 268 269 269 269 269 269 269 269 269 268 269 269 270 271 272 272 273 274 274 275 276 278 279 281 282 284 286 288 290 293 294 294 295 296 297 298 298 299 299 299 300 300 300
272 272 271 271 270 269 269 268 268 268 268 268 268 268 268 268 268 268 268 268 268 268 268 268 268 268 268 268 268 268 268 268 268 268 268 268 268 268 268 268 268 268 268 268 268 269 269 269 269 269 269 269 269 269 269 270 271 272 272 273 275 276 277 278 279 280 282 283 285 286 289 292 293 294 295 296 296 297 298 298 298 299 299 299 299
272 271 271 270 269 269 268 268 268 268 268 268 268 268 268 268 268 268 268 268 268 268 268 268 268 268 268 268 268 268 268 268 268 268 268 268 268 268 268 268 268 268 268 268 268 268 269 269 269 269 269 269 269 269 269 269 270 271 272 273 274 276 277 278 279 280 281 282 283 285 287 289 292 294 294 295 296 296 297 297 298 298 299 299 299
271 271 271 269 269 268 268 268 268 268 268 268 268 268 268 268 268 268 268 268 268 268 268 268 268 268 268 268 268 268 268 268 268 268 268 268 268 268 268 268 268 268 268 268 268 268 268 269 269 269 269 269 269 269 269 269 269 270 271 272 273 275 276 277 278 279 280 281 282 283 285 287 289 291 293 294 295 295 296 297 297 298 298 298 299
Wind_Speed
17 17 16 16 16 17 18 19 21 22 23 25 28 31 33 36 38 40 41 42 43 43 44 43 43 45 46 47 49 50 52 53 55 56 57 57 56 54 53 49 47 46 42 38 34 34 35 34 34 35 35 37 40 43 44 42 40 39 42 47 48 50 49 47 53 58 50 45 47 49 50 49 47 46 44 40 35 29 34 51 57 54 54 51 49
17 16 16 16 16 17 18 19 21 22 24 26 29 32 34 36 38 40 42 42 42 42 42 42 43 45 47 48 50 51 52 53 55 55 55 55 54 52 50 48 46 43 40 37 34 34 34 33 33 33 33 35 39 40 42 42 42 41 41 43 44 47 47 44 49 54 49 44 46 49 48 45 45 46 43 39 37 30 31 47 61 55 53 52 50
17 17 16 16 16 17 18 19 21 23 25 28 30 33 35 37 39 40 42 42 41 40 40 41 43 45 47 49 49 50 51 53 54 54 53 52 51 49 47 45 43 41 39 38 35 35 36 35 34 32 31 33 36 36 36 36 37 41 43 43 43 45 45 42 46 51 49 44 44 44 42 42 43 45 42 37 41 38 30 39 62 61 54 54 52
17 17 16 15 16 17 18 19 21 23 26 29 32 34 36 38 39 40 40 40 39 39 40 41 43 45 47 48 49 49 50 52 54 53 51 50 49 47 44 42 41 41 39 38 36 34 35 35 34 32 31 32 33 33 32 32 33 37 42 43 43 44 43 41 43 47 47 44 42 40 40 42 43 44 41 37 42 41 29 31 57 65 57 55 54
17 16 15 15 15 16 18 20 22 25 28 31 33 35 37 38 38 38 38 38 38 38 39 41 43 44 46 47 47 48 49 50 52 51 48 47 46 44 42 40 39 39 39 38 36 34 34 35 34 33 33 35 37 37 36 33 32 32 36 40 42 43 41 39 41 43 44 43 43 42 41 41 42 43 40 37 40 41 31 29 47 64 59 54 56
17 16 15 15 15 16 18 20 23 27 30 32 34 36 37 37 36 36 36 36 37 38 39 41 42 44 44 45 46 46 47 48 48 48 46 45 44 42 40 38 37 38 39 38 37 35 34 34 34 33 34 36 40 42 39 37 38 37 35 35 38 40 38 37 40 43 44 43 43 43 42 40 41 43 40 36 38 40 35 31 37 58 58 55 58
17 16 15 15 15 16 19 22 25 29 31 33 35 36 35 35 34 34 34 35 36 38 40 41 42 43 43 44 45 45 46 47 46 45 45 43 40 38 37 37 38 39 42 42 40 39 38 37 36 36 35 34 37 39 38 36 40 44 43 38 35 36 36 37 39 42 41 40 41 43 43 40 40 42 41 37 37 39 38 35 31 48 55 56 60
17 16 15 15 16 17 20 23 26 30 32 34 34 34 33 33 32 32 33 34 36 37 39 41 42 43 43 43 45 45 47 47 45 43 42 40 38 37 37 40 42 44 46 47 45 44 42 41 40 40 38 36 36 36 36 35 35 41 46 45 40 38 36 35 36 37 36 35 38 40 38 37 37 39 40 36 36 40 41 39 31 41 51 54 61
17 16 15 15 16 18 21 24 27 30 32 33 33 32 31 31 31 32 32 34 35 37 38 40 41 42 43 43 44 45 45 45 43 40 39 38 38 39 40 42 44 47 49 49 48 46 45 44 43 43 42 38 35 35 34 34 35 38 42 43 43 43 40 35 34 34 33 33 36 37 36 36 36 36 36 34 37 42 41 39 35 41 51 52 59
16 15 15 14 16 19 22 25 28 31 31 31 31 30 30 30 30 31 32 33 34 36 37 39 40 41 42 42 43 43 42 41 40 38 35 35 38 40 40 41 42 45 47 48 50 49 47 46 45 45 44 38 34 36 36 36 38 40 41 41 41 42 39 35 33 34 35 34 34 36 37 38 38 35 35 34 36 40 41 40 36 43 52 51 57
16 15 14 15 17 19 22 26 28 30 30 30 29 29 29 30 30 31 32 32 33 35 36 38 39 40 40 41 42 41 40 40 39 37 33 32 35 38 40 41 41 43 45 46 49 49 48 47 46 45 45 42 37 36 37 37 38 40 41 41 42 42 40 37 33 32 35 35 34 35 37 39 39 37 35 34 34 36 39 42 37 44 51 48 52
16 14 14 15 17 19 23 26 28 28 28 28 28 28 28 29 30 31 31 32 33 34 35 37 38 39 39 40 41 40 39 39 39 36 33 32 35 38 40 42 41 42 44 44 46 48 47 47 47 45 45 46 44 39 37 37 38 39 40 40 41 43 44 43 38 33 33 34 33 36 40 40 39 39 36 32 31 34 38 41 39 45 54 49 53
15 14 13 15 17 20 24 26 26 27 26 27 27 27 28 28 29 31 31 32 33 34 35 37 37 38 38 39 41 40 39 40 39 37 34 34 36 37 39 41 41 42 43 42 44 47 46 45 46 45 45 46 46 43 41 39 39 38 38 39 40 43 45 47 43 36 34 36 36 38 42 40 39 40 37 30 28 31 36 41 40 46 58 53 54
14 13 13 15 17 21 24 24 25 25 25 26 26 26 27 28 29 30 31 31 33 34 36 37 37 38 38 39 41 41 40 41 40 37 36 36 36 37 39 39 39 39 39 38 40 43 43 41 42 44 44 45 45 44 43 42 40 39 37 36 38 41 45 48 45 39 37 38 39 41 43 41 39 38 36 31 27 28 35 41 41 44 63 60 55
13 13 13 16 18 21 23 23 23 25 24 25 25 25 27 28 28 30 30 31 33 34 36 37 37 38 38 39 41 43 42 41 41 38 36 37 36 36 37 37 37 37 37 36 37 38 39 40 41 41 42 44 45 44 42 40 41 41 38 35 35 38 43 48 48 43 40 40 41 43 43 41 39 36 34 34 30 27 32 40 42 43 64 64 55
13 12 13 16 19 20 21 21 22 24 24 24 24 24 26 27 28 30 30 31 32 34 35 37 37 38 39 39 42 44 44 42 41 38 36 37 36 36 36 37 37 37 37 36 36 36 35 38 41 41 40 40 41 42 40 37 37 38 36 34 33 33 38 46 49 46 45 45 45 45 43 41 39 36 34 36 34 29 29 37 44 46 59 61 55
12 12 14 17 18 19 20 20 21 22 22 23 23 24 26 27 27 29 30 31 32 34 36 37 37 38 39 40 41 45 46 43 41 39 37 36 36 37 38 38 37 37 37 35 35 36 35 35 38 40 39 38 38 39 37 34 34 37 36 35 35 33 34 40 47 50 50 49 48 47 45 43 41 39 36 37 37 34 31 37 46 49 56 59 56
11 12 15 16 17 17 19 20 20 20 21 22 23 24 25 26 27 28 30 31 33 34 36 38 38 39 40 40 41 43 45 43 41 38 36 36 37 38 39 39 39 38 38 37 36 37 37 36 37 38 39 39 38 37 35 33 33 36 36 35 36 37 37 38 42 47 49 48 48 47 46 44 43 41 40 39 39 39 38 39 45 47 55 60 58
11 13 15 15 15 16 17 19 19 19 19 20 22 24 25 25 26 27 28 30 32 34 35 38 39 40 39 39 40 41 43 44 41 37 36 36 37 38 39 40 41 41 40 40 39 39 39 39 38 37 37 37 37 36 33 32 32 35 36 34 36 39 39 39 40 41 41 41 42 43 43 43 42 43 44 42 40 42 42 39 42 47 58 64 64
11 13 14 14 14 15 16 17 18 18 19 20 21 23 25 25 26 27 27 29 31 33 34 37 39 40 39 40 40 40 42 44 42 38 36 37 38 38 40 42 43 43 42 41 41 41 39 38 39 39 38 36 35 34 33 33 33 34 35 36 36 35 33 35 38 40 38 37 38 38 40 42 44 45 46 43 41 43 45 41 43 51 61 67 70
11 13 12 12 13 14 15 15 16 17 18 19 20 22 24 25 26 27 28 29 31 32 34 35 37 39 40 40 41 41 41 42 42 40 38 38 38 39 40 42 42 42 43 42 41 41 39 37 40 41 39 36 33 31 32 34 34 35 36 37 36 33 29 31 35 37 38 38 38 39 40 43 47 47 47 44 40 42 46 43 45 55 64 71 75
12 11 10 11 11 13 14 15 15 16 17 19 20 21 22 24 25 26 27 28 30 32 33 34 36 39 41 41 41 42 42 42 43 43 40 39 39 39 39 40 40 41 43 43 40 39 38 39 42 42 38 35 32 29 29 30 32 35 37 36 34 33 32 33 33 34 36 36 38 40 41 43 47 48 47 43 39 41 46 46 48 55 64 74 83
11 9 9 10 10 11 13 14 14 15 16 18 19 21 22 23 24 26 27 28 30 32 34 35 37 40 42 42 41 43 44 45 45 45 44 42 40 40 40 40 39 39 40 41 39 39 39 39 40 39 35 33 31 27 26 27 29 32 34 33 33 32 32 33 34 34 35 34 36 40 43 45 47 48 47 42 37 41 47 47 48 53 59 71 82
9 8 7 8 9 11 12 12 13 14 16 17 19 20 21 22 23 25 26 28 30 32 34 36 38 40 42 43 44 44 45 47 47 47 47 44 42 41 41 41 39 38 37 39 39 40 41 40 37 34 32 32 31 27 25 25 27 29 30 30 31 31 32 34 34 33 33 33 34 40 45 48 48 48 45 38 35 43 48 46 48 53 58 66 72
7 7 6 7 8 10 11 11 12 13 15 17 18 19 20 22 24 25 26 27 29 32 34 36 37 38 39 42 44 45 46 48 49 50 51 47 44 43 42 41 39 37 36 39 41 42 41 39 34 30 29 30 30 27 26 25 24 26 28 28 29 30 32 34 34 33 33 33 35 40 47 49 48 46 42 35 35 43 45 44 48 52 55 61 66
6 6 6 6 8 10 11 10 11 12 13 15 17 18 20 22 24 25 27 28 29 30 33 35 35 36 37 39 41 44 47 49 50 52 53 51 49 49 47 43 40 37 38 40 41 41 39 34 27 24 24 27 26 24 25 23 20 21 25 27 28 30 31 33 34 35 36 36 37 41 45 46 45 42 36 32 36 42 43 46 52 51 50 56 61
7 6 5 6 8 10 10 8 9 11 12 13 15 16 18 20 23 25 27 28 29 30 31 32 32 34 36 37 40 43 46 48 50 51 52 52 51 51 49 45 41 40 42 42 40 37 34 27 19 16 19 22 21 20 21 20 17 18 21 24 26 29 32 33 34 35 36 36 36 38 40 40 38 34 30 31 38 41 44 52 56 52 49 54 60
7 6 5 7 9 10 9 7 7 9 10 12 14 16 17 17 20 23 25 27 29 29 30 30 30 31 33 35 38 42 44 46 47 48 49 47 47 47 45 40 39 41 42 40 36 32 26 19 12 10 12 16 17 17 17 16 16 19 21 22 23 26 28 30 31 33 34 34 34 35 35 34 31 27 27 34 41 43 47 55 58 53 51 54 57
7 6 6 7 9 10 8 7 7 8 8 10 12 16 19 20 20 20 21 23 24 25 26 28 28 29 30 32 35 39 42 43 42 42 43 43 43 44 39 33 34 39 38 34 31 28 23 19 15 13 10 10 11 12 15 14 14 17 19 20 21 23 24 26 28 31 31 31 32 33 31 29 26 24 29 37 45 47 50 55 57 54 52 53 55
8 7 7 8 9 9 7 6 7 8 8 8 9 11 14 18 21 21 21 20 20 19 21 23 25 26 27 28 29 31 34 38 38 39 40 41 41 40 34 27 29 33 33 30 29 27 26 25 24 21 17 12 8 6 8 10 12 15 18 20 20 21 22 24 26 28 30 30 31 30 27 26 25 26 33 43 48 50 52 54 56 56 53 52 54
8 7 7 8 9 8 6 6 7 8 8 9 10 9 9 10 14 18 20 21 20 19 19 20 22 23 24 26 28 29 30 33 35 37 39 40 40 39 34 28 27 30 32 32 31 31 32 32 30 28 25 19 13 10 9 8 8 11 15 18 20 20 21 23 26 28 29 30 30 28 26 27 27 29 39 48 49 51 54 53 54 58 57 53 54
9 8 8 8 8 7 5 5 6 7 8 9 11 12 12 11 11 12 15 17 20 22 22 21 21 21 22 23 27 30 32 33 35 36 37 39 39 37 34 31 30 31 32 31 32 35 39 39 36 34 32 28 22 17 14 11 9 8 9 12 16 19 21 23 24 26 28 29 28 28 27 27 28 31 42 50 49 50 54 54 54 58 59 55 55
10 8 8 8 7 6 4 4 5 6 7 9 11 13 15 17 17 16 14 14 15 17 19 20 21 21 22 23 26 29 31 33 34 36 37 38 39 37 34 31 31 33 34 35 38 42 43 43 40 38 37 35 30 24 20 16 12 10 8 8 10 13 17 20 22 24 25 25 26 27 26 27 29 32 39 47 50 50 52 54 56 58 58 56 55
10 9 8 7 7 5 4 3 4 5 6 9 11 13 15 17 19 21 21 20 19 17 18 20 21 22 23 24 26 28 31 32 35 37 38 39 39 38 35 31 30 32 36 41 45 47 47 46 44 41 39 38 34 30 25 21 17 13 10 8 9 10 13 16 19 21 22 21 22 24 25 26 30 34 37 43 49 51 51 53 56 57 56 55 54
11 9 8 7 6 5 3 3 4 5 6 8 10 12 14 16 18 20 22 24 25 24 23 23 24 25 26 26 27 29 31 32 35 37 39 40 40 40 39 38 38 40 43 46 47 47 47 47 47 45 42 40 37 34 30 26 22 19 15 11 9 10 12 13 15 18 19 19 19 22 24 25 29 35 37 40 47 52 51 51 54 57 56 55 55
12 10 8 7 6 4 3 2 3 4 6 8 10 12 14 15 17 19 20 21 22 24 25 25 25 25 25 25 27 29 31 32 34 37 39 40 41 41 42 44 46 48 49 49 49 48 47 47 47 47 45 42 40 37 34 30 26 23 19 16 12 11 11 11 12 14 17 18 19 20 23 26 30 36 38 38 44 52 54 52 52 55 56 55 55
12 10 8 7 6 4 2 2 3 4 6 8 10 11 13 14 15 17 18 19 20 22 24 25 26 26 26 27 29 31 32 31 31 35 38 41 42 43 43 44 45 48 49 49 49 49 48 47 46 47 46 45 43 41 37 34 30 26 22 18 15 12 11 11 12 13 14 17 18 19 23 28 31 36 40 39 41 47 53 53 53 53 55 55 55
12 10 8 7 5 3 2 1 2 4 5 7 9 11 12 13 14 15 16 17 19 21 22 24 27 29 30 30 32 33 32 32 32 35 40 43 45 45 45 44 44 46 48 49 49 49 48 47 46 46 47 46 45 44 41 37 34 30 26 21 17 13 11 10 11 12 12 14 17 19 23 28 32 37 41 42 42 44 48 52 53 53 53 52 52
13 10 8 6 5 3 2 1 1 3 5 7 8 10 11 12 13 14 15 16 17 19 21 23 25 26 28 30 32 33 33 34 37 40 42 45 46 46 45 44 44 45 47 48 49 49 49 48 47 47 47 48 47 46 45 42 37 33 30 25 21 16 12 10 10 10 10 10 13 18 23 28 33 37 41 43 44 44 45 49 52 53 52 51 51
13 10 8 6 5 4 2 1 1 2 4 6 8 9 10 11 12 13 14 15 17 18 20 22 23 24 26 28 30 30 31 34 37 39 41 43 44 45 45 45 44 45 47 48 49 49 50 49 48 48 48 49 48 47 47 45 42 37 33 29 25 20 16 12 10 9 9 9 11 15 21 28 33 37 40 43 45 44 45 48 50 52 54 54 54
12 10 8 7 5 4 3 2 0 1 4 5 7 8 9 10 11 13 14 15 16 17 18 20 21 22 23 24 24 25 27 30 33 35 38 41 42 43 44 44 44 44 46 47 48 49 49 49 49 50 50 51 50 49 49 48 46 42 38 34 29 24 19 15 11 9 9 10 11 14 18 25 33 38 41 43 44 44 46 47 48 51 53 54 53
12 10 8 7 6 5 4 2 1 1 3 5 6 7 8 9 10 12 13 14 15 15 16 17 18 19 20 21 21 22 24 26 29 32 35 38 40 41 42 43 43 44 45 46 47 48 49 49 50 50 50 51 52 51 50 50 49 47 44 40 35 29 23 18 14 11 10 11 13 15 17 22 30 38 42 43 43 43 44 46 47 49 51 50 49
12 10 9 8 7 6 4 3 1 1 3 4 5 6 7 8 9 11 12 13 14 15 15 16 17 18 18 19 20 21 22 24 27 30 32 35 37 39 40 41 42 42 43 44 45 47 48 49 50 50 50 51 52 51 50 50 49 49 48 45 40 34 27 21 17 14 12 11 13 16 18 20 26 34 40 42 43 42 43 44 46 47 49 48 47
12 11 10 9 8 6 5 3 2 1 2 3 4 5 6 7 8 10 11 12 13 14 14 15 16 17 18 19 19 20 22 24 26 28 30 32 34 36 38 39 40 40 41 43 45 46 48 49 50 50 51 52 52 52 51 51 50 49 49 48 45 39 32 26 21 17 14 13 12 16 19 21 24 29 36 40 42 42 42 43 44 45 46 46 45
13 11 10 9 8 7 5 4 2 1 1 2 3 4 5 6 7 9 10 11 12 12 13 14 15 16 17 18 20 21 22 23 25 26 28 29 31 33 35 36 38 39 40 41 43 45 47 49 50 51 52 53 54 53 52 52 52 51 50 48 47 43 36 29 24 20 17 15 14 15 19 21 23 26 31 37 41 42 43 43 44 45 44 44 45
13 12 11 10 9 7 6 4 3 2 1 2 3 4 4 5 7 8 9 10 11 11 12 13 14 16 17 18 19 20 21 22 23 24 26 27 28 30 31 33 35 37 38 39 41 43 45 47 49 51 51 53 54 54 54 53 53 53 51 49 46 42 36 30 24 21 17 14 14 14 17 20 23 25 29 33 37 41 43 44 45 45 45 45 46
14 13 11 10 9 8 6 5 4 2 1 2 2 3 4 5 6 7 8 9 10 10 11 12 13 15 16 17 19 20 21 22 23 23 24 26 27 28 29 30 32 34 36 38 39 41 43 45 47 49 50 52 54 55 55 54 53 54 53 51 47 42 36 30 24 20 17 14 12 13 15 19 21 23 26 30 34 38 41 43 44 45 46 47 48
14 13 12 11 10 8 7 6 4 3 2 2 2 2 3 4 5 6 7 8 9 9 10 11 13 14 15 16 18 19 20 21 22 22 23 24 25 26 27 28 30 32 34 36 38 39 41 43 45 47 49 50 52 55 56 55 53 53 53 52 49 44 37 31 25 21 16 13 10 9 12 16 19 20 22 27 32 35 38 40 42 44 46 48 48
14 13 12 11 10 9 8 6 5 4 3 2 2 1 2 3 4 5 6 7 8 9 10 10 12 13 14 16 17 18 19 20 21 22 23 24 25 26 27 27 28 29 31 33 36 38 39 40 43 45 47 48 49 52 56 56 54 53 52 51 49 45 41 35 29 23 18 13 9 5 6 12 17 19 20 24 29 33 36 38 40 42 44 45 46
15 14 12 12 11 10 8 7 6 4 3 3 2 1 2 3 3 4 5 6 7 8 9 10 11 13 14 15 17 18 19 20 21 22 23 24 25 26 27 27 28 29 30 31 32 34 36 38 40 42 45 46 47 49 53 55 55 53 51 49 48 47 44 41 36 29 23 18 13 8 2 6 13 18 20 22 26 29 32 35 38 39 41 43 44
15 14 13 12 11 10 9 8 6 5 4 3 2 2 2 2 3 3 4 5 6 7 8 9 11 12 14 15 16 17 18 20 21 22 23 24 25 26 27 28 28 29 30 30 30 32 34 36 38 39 42 44 45 46 48 52 54 53 51 49 48 47 46 44 42 37 31 25 19 14 9 3 6 12 17 21 24 26 28 31 34 36 38 41 43
Wind_Direction
239 247 256 264 273 282 290 297 301 306 311 313 313 314 315 316 318 319 320 320 319 318 318 318 318 318 317 317 316 316 315 314 312 310 308 306 306 305 304 301 297 297 294 286 278 277 278 273 270 270 268 267 268 268 265 260 257 259 260 257 253 250 251 258 264 262 261 262 263 268 270 274 278 275 272 261 250 267 265 239 233 235 233 234 231
238 247 256 264 275 284 291 298 303 308 312 313 313 314 315 317 319 319 320 320 319 319 319 320 319 318 318 317 317 316 315 314 312 310 308 307 307 306 303 301 301 300 296 287 278 275 275 273 273 272 269 270 276 278 275 267 257 254 257 258 253 249 249 258 264 260 259 260 262 267 270 273 276 274 275 265 247 265 273 238 231 234 234 233 230
238 246 256 265 276 286 293 300 306 311 314 314 314 315 317 319 320 321 321 321 320 320 321 321 320 319 319 318 317 316 316 314 312 309 308 308 308 306 303 304 304 303 299 293 286 278 274 273 273 272 270 273 279 282 282 279 268 256 254 257 255 250 250 258 263 259 258 260 261 265 269 273 275 274 276 267 249 259 276 242 229 231 234 232 229
239 247 256 267 278 288 296 303 310 314 315 314 315 316 318 321 322 322 322 321 321 322 322 321 320 319 319 318 318 317 317 315 312 311 312 311 309 307 306 307 306 304 302 299 295 285 277 274 273 272 271 273 276 277 277 279 278 269 265 261 255 251 253 259 263 258 256 260 260 262 268 272 274 275 275 270 255 254 274 256 229 226 230 228 225
239 248 258 269 280 290 298 306 312 314 314 315 316 318 321 323 324 324 323 322 322 322 322 321 320 320 319 319 319 319 318 315 313 313 314 312 309 308 308 307 306 305 303 301 300 291 280 276 274 271 269 266 265 265 263 262 265 270 271 266 257 253 255 261 264 259 254 258 261 262 267 269 271 275 274 269 259 251 264 267 229 219 223 221 220
240 249 259 269 282 292 301 309 312 314 315 316 318 321 323 324 325 324 323 322 323 323 322 321 320 320 321 321 321 320 319 316 315 315 314 312 310 309 309 308 307 307 305 303 303 298 289 284 282 279 276 272 269 269 268 259 254 258 263 263 259 256 258 264 264 257 252 255 260 261 264 267 269 273 272 267 263 256 263 271 229 211 214 213 211
240 249 260 271 284 295 304 311 314 315 316 317 320 323 325 325 325 325 324 323 323 323 321 321 321 321 322 323 322 322 320 319 320 319 316 314 313 311 310 310 309 308 306 303 302 302 298 293 291 289 284 280 278 278 279 271 259 256 255 254 255 254 258 265 260 252 250 254 258 259 263 269 270 272 271 268 268 262 263 271 236 201 203 207 205
240 250 261 274 287 299 307 312 314 315 316 320 323 325 326 326 326 325 324 324 323 322 321 321 322 323 325 326 325 325 324 324 326 324 320 319 318 314 312 311 309 307 304 302 301 301 299 297 294 291 290 289 284 280 284 283 273 265 259 254 252 250 254 264 260 251 249 252 255 256 261 267 268 271 273 270 269 262 256 262 241 191 187 198 198
239 251 263 277 291 302 310 313 314 316 318 322 325 326 327 326 326 325 325 324 323 322 322 323 323 325 328 329 328 329 329 329 329 328 324 320 315 309 307 305 304 303 301 299 299 298 298 297 294 292 294 292 281 275 279 280 273 270 265 259 255 250 251 260 262 256 252 251 253 253 256 262 263 267 270 266 265 259 251 256 241 192 176 180 181
239 252 265 280 294 304 311 313 314 317 321 325 326 327 328 326 325 325 324 324 323 322 323 324 326 328 331 331 331 332 333 331 331 329 323 312 305 301 300 298 296 297 296 294 295 295 295 296 294 294 294 289 274 267 271 271 266 266 264 260 257 253 251 257 261 258 254 252 253 253 256 260 260 263 267 263 262 258 252 256 240 196 177 171 169
238 252 267 283 297 307 311 312 315 320 324 327 328 329 327 325 325 325 325 324 323 323 325 326 328 331 333 333 333 334 336 335 333 330 323 311 302 299 299 298 296 294 293 291 291 292 293 295 294 292 291 289 281 270 267 266 265 265 263 260 256 251 248 251 256 258 255 253 254 253 255 260 259 260 264 263 263 257 251 255 239 196 180 174 167
240 255 270 286 299 307 309 312 317 323 326 328 329 328 325 324 324 324 324 324 323 325 327 328 331 333 334 334 334 337 340 339 336 334 327 315 306 302 300 299 297 294 294 292 288 289 292 293 294 291 287 289 288 280 271 267 266 266 264 260 257 251 244 243 247 255 256 254 255 253 253 257 258 258 260 261 264 257 248 253 243 200 183 178 169
242 258 274 291 302 306 308 314 321 326 328 329 328 326 323 324 324 323 324 324 325 327 329 330 333 334 335 335 336 340 343 342 341 338 329 315 308 305 302 300 298 296 296 293 289 290 292 292 292 292 290 289 286 281 277 273 269 268 265 260 256 251 244 238 238 246 254 254 254 254 252 255 257 256 255 255 261 258 246 251 247 208 187 183 174
244 261 279 294 302 304 310 318 324 328 329 328 326 324 322 323 324 323 325 326 328 330 330 332 334 335 336 337 338 342 346 345 343 338 326 315 310 308 305 302 300 297 295 293 290 290 291 290 288 290 291 290 284 279 280 277 270 268 266 260 256 251 243 236 232 238 246 247 249 252 251 252 254 255 255 250 253 259 247 247 249 213 187 184 179
248 266 282 294 299 304 313 323 327 328 329 326 324 323 322 323 323 323 327 329 330 331 331 333 335 336 338 340 340 343 347 346 344 338 327 317 313 311 308 304 301 298 295 293 291 289 287 285 285 288 291 290 285 278 277 277 273 270 264 258 259 256 246 236 231 232 235 236 241 248 250 250 253 258 260 252 247 252 248 248 249 215 186 181 179
251 270 284 292 299 308 318 326 328 328 326 323 322 322 321 323 324 325 328 330 331 333 333 333 335 336 340 343 342 343 347 347 343 339 331 323 317 314 311 307 303 300 297 295 294 291 286 281 281 287 291 290 287 281 275 271 269 268 261 252 253 258 251 240 233 232 234 235 239 246 250 253 256 261 264 258 248 244 246 252 248 217 185 175 175
255 274 285 291 302 313 322 327 327 326 323 321 321 321 321 324 326 327 330 331 333 334 334 332 335 339 342 346 345 344 345 346 343 339 332 325 321 317 313 310 306 302 299 298 295 292 288 282 280 285 288 289 289 285 276 266 261 261 259 251 246 250 252 244 237 235 236 239 242 246 250 254 259 261 262 260 253 245 248 257 248 217 184 172 172
258 275 285 294 307 318 323 326 325 322 321 319 320 322 323 325 328 330 332 333 334 335 334 333 337 342 345 347 347 344 342 344 344 337 330 325 323 321 317 313 309 305 302 300 297 293 290 287 284 282 282 285 287 285 276 265 257 255 255 253 249 248 247 243 239 238 240 243 245 248 252 255 259 262 261 260 259 252 248 255 247 215 183 172 170
262 276 287 299 312 320 324 324 322 319 319 320 321 323 325 327 330 333 334 334 334 335 335 335 338 344 347 347 347 344 341 343 344 336 326 325 325 323 320 315 310 307 304 300 299 296 292 292 290 284 280 280 281 280 272 261 255 252 249 250 252 250 248 245 242 241 244 247 248 249 253 256 258 261 261 263 266 254 239 241 241 213 184 172 170
265 277 290 304 314 321 324 321 318 316 318 321 322 323 326 329 332 334 336 336 336 335 336 338 340 343 345 347 348 346 344 344 343 335 327 325 326 323 321 317 312 308 306 303 301 298 294 291 289 285 282 279 276 273 265 256 253 253 248 245 246 249 252 251 246 244 245 247 249 250 253 256 258 260 261 264 267 252 233 230 232 211 185 173 171
266 278 294 308 315 321 321 316 315 316 317 321 323 325 328 331 333 336 338 338 337 336 338 341 341 341 346 349 348 347 347 345 342 337 330 327 326 325 323 319 314 310 308 304 301 299 296 292 289 287 286 283 278 272 263 253 250 252 249 245 244 246 250 253 250 247 247 248 250 252 253 255 256 257 260 264 264 247 230 226 223 207 187 176 173
267 281 297 309 315 319 317 312 313 316 317 321 324 327 330 333 334 337 339 339 338 338 341 342 341 342 348 350 347 347 349 348 344 341 335 329 328 327 324 320 316 312 309 306 303 300 296 292 290 289 286 283 280 275 267 255 248 248 248 246 246 245 247 251 252 249 247 247 250 252 253 255 256 256 260 264 260 242 229 224 219 206 191 182 179
268 284 296 307 314 314 311 309 311 314 317 321 324 328 332 334 336 338 341 341 341 341 342 343 345 347 349 348 346 348 350 350 348 345 339 332 329 328 325 322 319 315 311 307 303 301 299 296 293 289 285 283 280 277 270 257 246 246 247 245 244 244 245 248 250 248 246 246 248 251 253 254 255 257 260 261 252 235 225 221 218 209 196 187 183
267 283 292 304 310 307 304 304 308 314 318 321 325 331 334 335 338 341 342 343 344 344 344 346 349 351 348 346 346 349 351 352 351 348 343 335 330 330 329 326 322 319 314 310 308 308 306 304 299 292 285 280 276 273 269 259 248 246 246 244 243 243 242 243 244 244 244 243 245 249 250 250 252 255 258 256 241 227 222 218 216 211 199 188 184
264 275 287 299 302 300 298 300 307 315 319 322 327 333 335 337 341 342 344 347 348 347 347 350 351 350 347 346 346 349 353 353 352 351 348 340 333 333 332 329 326 324 321 318 319 319 315 308 300 290 281 276 272 267 263 259 252 247 246 244 241 240 239 241 240 240 241 241 242 246 247 248 251 255 258 253 234 223 221 217 214 210 199 189 185
258 264 276 289 292 290 290 298 309 316 320 324 329 334 337 340 343 344 346 350 351 350 351 352 350 348 347 347 346 349 354 354 352 352 349 341 336 336 335 332 332 331 329 328 328 326 321 311 299 285 273 270 270 267 261 259 256 249 245 241 239 239 240 240 238 237 236 237 240 245 248 250 254 259 259 247 229 221 218 213 210 207 197 186 182
248 253 265 277 280 280 282 294 309 315 321 327 330 335 340 342 345 346 348 350 351 353 355 353 349 347 347 347 347 351 355 354 352 351 347 341 339 338 336 335 338 339 338 337 334 332 330 321 305 288 277 270 266 263 263 263 258 249 244 242 241 243 242 240 238 236 234 236 242 247 250 254 259 262 255 235 221 217 211 205 204 202 194 183 178
235 244 257 269 274 276 280 293 307 314 324 330 333 337 340 344 350 351 350 352 354 355 354 351 349 347 346 346 349 352 353 352 351 349 344 340 340 339 338 339 342 343 344 341 336 336 341 341 336 330 309 288 270 255 252 257 257 252 249 247 245 244 241 239 239 237 235 238 245 249 253 258 260 257 245 225 215 211 206 200 199 198 190 181 177
225 234 249 263 270 274 281 297 310 317 328 337 341 342 341 345 353 356 355 356 358 355 351 349 349 348 346 349 354 353 348 346 346 345 342 342 343 343 341 343 345 346 347 347 344 345 355 3 12 21 7 327 296 267 251 249 254 258 257 253 247 244 240 236 235 236 237 241 246 250 255 259 256 248 234 218 209 207 203 197 195 194 187 181 179
218 225 240 257 266 271 283 302 314 321 332 345 353 356 352 348 349 352 356 358 357 355 352 350 350 349 349 352 358 354 346 343 343 344 345 347 349 348 346 348 353 353 354 358 1 3 9 14 19 26 29 24 9 328 285 267 263 265 266 261 253 246 241 238 236 238 241 244 247 252 256 257 254 240 221 209 204 204 202 196 191 190 186 182 181
214 220 233 252 261 269 284 305 318 324 336 347 353 2 9 3 353 351 353 353 351 352 357 356 353 352 352 356 1 1 356 353 351 350 351 353 355 357 355 356 4 8 7 10 14 16 19 19 18 20 22 23 23 12 352 327 298 282 275 269 262 253 246 244 243 243 244 244 246 252 256 254 251 233 212 202 199 198 198 194 190 188 187 184 183
209 216 228 245 255 263 278 302 318 328 340 350 353 355 359 5 7 1 358 355 350 350 356 359 357 356 357 2 7 7 5 4 2 360 360 360 0 3 3 6 14 18 17 18 20 22 23 21 18 17 17 17 16 13 6 356 336 314 297 280 269 261 255 252 247 244 245 246 247 252 254 249 243 226 207 199 196 194 192 191 189 187 187 187 186
205 213 226 240 249 256 271 297 315 329 345 351 354 356 357 357 359 0 3 7 3 357 356 357 359 1 2 7 13 13 11 11 11 9 7 6 6 7 7 12 21 24 24 25 25 24 22 21 19 17 16 14 14 12 9 5 354 334 316 293 277 266 260 257 252 248 248 249 251 253 252 244 235 222 205 197 195 191 188 189 188 186 185 186 187
200 209 224 237 245 251 267 299 315 331 351 355 355 359 360 357 355 355 357 2 5 5 5 4 4 7 8 10 16 17 15 15 16 15 12 11 11 9 7 10 20 27 30 31 28 23 20 18 18 18 16 14 13 11 9 7 2 351 331 300 276 264 256 255 256 255 253 252 253 252 247 238 229 219 205 196 193 191 189 188 187 185 184 184 186
198 205 218 231 240 248 261 293 316 336 353 357 358 1 0 358 356 355 356 358 358 0 4 7 8 10 11 12 17 20 18 17 19 20 18 16 13 11 9 14 21 27 30 30 27 22 18 16 15 15 15 14 13 11 8 6 3 359 350 331 299 274 261 258 261 263 261 258 255 249 240 231 223 215 206 196 192 191 190 188 186 185 185 185 186
197 202 212 226 233 237 254 286 315 342 355 357 359 2 1 358 357 356 357 359 358 357 0 4 7 12 13 12 17 21 20 18 20 22 22 20 18 17 18 22 25 27 28 27 25 22 19 16 15 14 15 14 13 11 9 7 4 0 355 348 332 305 285 272 266 266 266 265 261 248 233 224 219 212 206 199 193 192 192 190 187 186 186 188 188
195 199 208 220 226 227 236 275 316 347 358 358 359 1 360 359 358 356 357 358 358 359 1 1 3 9 12 12 18 22 20 17 20 25 25 24 23 24 26 27 27 28 27 25 23 21 19 16 14 13 13 14 13 12 10 8 6 2 357 352 344 330 312 291 275 267 266 268 268 252 230 221 217 211 205 201 197 194 193 192 190 189 189 190 190
191 196 205 213 216 216 224 259 323 353 359 359 359 359 360 360 358 356 359 360 359 1 4 4 4 7 8 11 17 21 16 13 17 24 27 26 25 25 27 27 28 29 28 25 23 22 19 18 16 14 13 14 13 12 12 11 8 5 0 354 348 339 322 296 277 267 261 266 272 260 234 220 216 211 206 203 200 197 194 193 192 191 191 191 190
187 190 199 206 203 197 202 254 342 0 358 357 358 358 359 2 360 358 1 3 3 4 6 8 10 9 7 10 16 17 13 14 18 23 26 27 26 26 26 27 28 30 29 27 25 23 20 18 17 15 13 14 14 13 13 12 11 9 5 359 353 345 331 308 286 270 256 256 265 258 239 224 215 211 208 205 202 199 195 193 192 192 191 191 191
185 187 193 196 192 184 182 195 357 359 355 356 357 357 359 2 1 1 4 7 8 8 8 9 12 12 11 13 17 15 13 16 21 23 25 27 27 27 27 27 28 30 30 28 27 24 21 19 18 16 14 15 15 14 13 13 12 12 10 4 358 351 342 328 309 281 257 244 240 239 235 227 218 211 208 207 204 201 197 194 193 192 193 193 193
183 186 189 186 181 178 178 179 148 1 356 356 358 359 2 4 3 3 6 9 10 10 10 11 13 14 14 17 18 16 14 18 22 24 25 27 27 27 28 28 28 29 30 29 28 25 23 21 20 18 16 16 16 15 14 14 13 13 12 9 4 356 346 334 320 295 263 243 228 220 222 224 220 214 209 206 204 202 199 196 194 194 194 194 194
183 185 185 180 176 176 176 176 173 8 4 1 1 3 5 7 6 4 6 9 12 12 12 13 15 15 16 18 18 16 16 19 23 24 26 27 27 27 28 28 28 30 31 30 28 26 24 22 22 21 18 16 17 17 16 14 13 12 12 10 7 1 353 342 327 307 275 247 228 217 213 216 218 217 213 208 204 201 199 198 196 195 195 194 193
182 183 181 176 174 177 176 171 155 44 12 6 6 8 8 8 8 6 5 8 11 11 11 13 16 17 18 18 18 17 17 19 22 25 26 26 27 27 27 27 27 29 31 32 31 30 26 24 24 23 20 18 18 18 17 16 14 12 11 10 8 5 0 351 337 317 292 261 233 220 214 212 215 217 215 210 205 202 200 199 198 198 197 195 193
182 182 178 172 172 175 175 165 146 83 28 15 11 11 12 10 8 7 7 8 11 11 10 12 15 17 18 19 19 19 19 20 21 23 25 26 26 26 26 26 26 27 29 32 34 33 31 28 27 25 23 21 21 21 20 19 17 15 13 11 9 7 4 357 348 333 310 284 251 226 217 214 214 215 215 212 207 204 202 201 201 200 199 197 194
182 179 173 171 173 173 170 162 149 105 48 32 21 15 15 12 9 9 9 9 12 13 12 12 16 18 20 20 20 20 20 20 20 21 22 24 25 26 25 25 25 25 26 30 33 34 33 31 29 27 25 23 22 22 22 22 20 19 17 14 11 9 5 359 351 341 324 301 274 244 225 216 213 214 215 213 210 208 206 205 204 202 200 198 196
180 176 171 172 174 171 167 163 151 124 73 43 29 19 14 12 13 16 15 13 15 17 16 16 20 21 21 22 23 22 21 20 20 20 21 22 23 24 25 25 25 25 24 26 30 34 34 33 31 29 27 24 23 22 23 23 23 21 20 18 15 12 8 2 355 346 334 313 288 262 239 223 214 212 214 214 211 210 209 209 207 204 203 201 200
178 174 171 173 174 170 165 161 152 136 111 76 40 19 14 16 18 21 21 19 20 22 20 21 24 25 25 26 26 24 22 21 20 20 20 20 20 22 22 22 24 24 23 23 26 31 34 34 33 31 29 27 24 23 23 24 24 24 22 21 20 17 13 8 3 356 345 328 302 274 250 233 220 212 212 214 213 210 210 210 209 208 206 205 204
175 173 173 174 173 169 163 161 159 153 135 107 67 26 20 25 27 28 27 25 25 27 26 27 29 29 28 29 28 27 25 24 22 21 21 21 20 21 21 20 21 23 23 22 24 27 32 34 34 32 31 28 25 23 23 24 25 25 24 23 22 21 19 16 13 9 2 346 319 284 253 236 225 215 212 214 215 213 210 209 209 209 208 207 206
173 174 176 175 172 167 165 163 161 155 144 125 95 53 38 39 37 36 33 29 28 29 29 30 33 34 32 32 31 29 27 26 25 24 24 23 22 21 21 21 21 21 22 21 21 24 28 33 34 34 32 30 27 24 23 23 25 25 25 24 23 23 23 24 23 20 17 10 355 321 253 227 221 217 212 211 213 215 213 211 210 209 208 207 206
174 175 176 175 171 168 166 164 161 156 148 136 119 88 68 60 52 45 39 33 30 31 30 30 33 35 34 33 32 31 28 27 26 25 25 24 24 23 22 21 22 22 22 21 21 22 25 29 33 34 33 32 29 25 22 22 24 25 25 25 25 24 25 28 30 29 28 29 26 18 353 212 208 209 209 208 209 211 213 213 212 211 209 207 206
176 177 176 174 172 170 168 166 164 161 153 143 137 126 104 87 74 59 50 41 33 32 32 32 33 34 34 33 31 30 28 27 26 25 24 24 24 24 23 23 22 23 22 21 21 21 23 26 30 33 33 33 31 26 21 20 22 24 25 25 26 27 27 29 32 35 36 38 39 38 37 59 182 193 198 201 202 204 207 210 212 212 211 209 208